Previsão horária em Juruti

Hoje, 24 Junho, Quinta-feira

Tempo Temperatura Precipitação Vento Pressão Humidade
00:00 +25°C° 0.2 mm 1 m/s 759 mmHg 90%
01:00 +22°C° 0.2 mm 0 m/s 758 mmHg 93%
02:00 +22°C° 0.2 mm 0 m/s 758 mmHg 95%
03:00 +22°C° 0.1 mm 0 m/s 758 mmHg 96%
04:00 +22°C° 0.1 mm 0 m/s 758 mmHg 96%
05:00 +22°C° 0.1 mm 0 m/s 758 mmHg 96%
06:00 +25°C° 0 mm 1 m/s 759 mmHg 92%
07:00 +26°C° 0 mm 1 m/s 759 mmHg 87%
08:00 +28°C° 0 mm 1 m/s 760 mmHg 82%
09:00 +29°C° 0.5 mm 2 m/s 760 mmHg 74%
10:00 +31°C° 0.5 mm 2 m/s 760 mmHg 65%
11:00 +34°C° 0.5 mm 2 m/s 759 mmHg 56%
12:00 +34°C° 0 mm 2 m/s 758 mmHg 52%
13:00 +35°C° 0 mm 2 m/s 757 mmHg 49%
14:00 +36°C° 0 mm 2 m/s 756 mmHg 45%
15:00 +34°C° 0 mm 2 m/s 756 mmHg 51%
16:00 +32°C° 0 mm 1 m/s 756 mmHg 56%
17:00 +31°C° 0 mm 1 m/s 756 mmHg 62%
18:00 +30°C° 0 mm 1 m/s 757 mmHg 65%
19:00 +29°C° 0 mm 1 m/s 757 mmHg 68%
20:00 +27°C° 0 mm 1 m/s 758 mmHg 71%
21:00 +27°C° 0 mm 1 m/s 758 mmHg 75%
22:00 +26°C° 0 mm 1 m/s 758 mmHg 78%
23:00 +25°C° 0 mm 1 m/s 758 mmHg 82%

Amanhã, 25 Junho, Sexta-feira

Tempo Temperatura Precipitação Vento Pressão Humidade
00:00 +25°C° 0 mm 1 m/s 758 mmHg 85%
01:00 +25°C° 0 mm 1 m/s 757 mmHg 87%
02:00 +22°C° 0 mm 0 m/s 757 mmHg 90%
03:00 +24°C° 0 mm 1 m/s 757 mmHg 91%
04:00 +24°C° 0 mm 1 m/s 757 mmHg 92%
05:00 +24°C° 0 mm 1 m/s 757 mmHg 92%
06:00 +26°C° 0 mm 1 m/s 758 mmHg 85%
07:00 +27°C° 0 mm 1 m/s 759 mmHg 77%
08:00 +29°C° 0 mm 1 m/s 759 mmHg 69%
09:00 +31°C° 0 mm 1 m/s 759 mmHg 62%
10:00 +34°C° 0 mm 2 m/s 759 mmHg 54%
11:00 +36°C° 0 mm 2 m/s 759 mmHg 47%
12:00 +36°C° 0 mm 2 m/s 758 mmHg 45%
13:00 +36°C° 0 mm 2 m/s 757 mmHg 44%
14:00 +36°C° 0 mm 2 m/s 756 mmHg 43%
15:00 +35°C° 0 mm 2 m/s 756 mmHg 48%
16:00 +34°C° 0 mm 2 m/s 756 mmHg 53%
17:00 +32°C° 0 mm 2 m/s 756 mmHg 59%
18:00 +31°C° 0 mm 1 m/s 756 mmHg 61%
19:00 +29°C° 0 mm 1 m/s 757 mmHg 64%
20:00 +28°C° 0 mm 1 m/s 757 mmHg 66%
21:00 +27°C° 0 mm 1 m/s 757 mmHg 72%
22:00 +26°C° 0 mm 1 m/s 758 mmHg 78%
23:00 +25°C° 0 mm 1 m/s 758 mmHg 83%

Depois de amanhã, 26 Junho, Sábado

Tempo Temperatura Precipitação Vento Pressão Humidade
00:00 +25°C° 0 mm 1 m/s 757 mmHg 85%
01:00 +25°C° 0 mm 1 m/s 757 mmHg 86%
02:00 +25°C° 0 mm 1 m/s 756 mmHg 87%
03:00 +24°C° 0 mm 1 m/s 756 mmHg 87%
04:00 +24°C° 0 mm 1 m/s 757 mmHg 88%
05:00 +24°C° 0 mm 1 m/s 757 mmHg 89%
06:00 +26°C° 0 mm 2 m/s 757 mmHg 83%
07:00 +27°C° 0 mm 2 m/s 758 mmHg 76%
08:00 +29°C° 0 mm 2 m/s 759 mmHg 70%
09:00 +30°C° 0 mm 2 m/s 758 mmHg 63%
10:00 +32°C° 0 mm 2 m/s 758 mmHg 55%
11:00 +35°C° 0 mm 2 m/s 758 mmHg 47%
12:00 +36°C° 0 mm 2 m/s 757 mmHg 45%
13:00 +36°C° 0 mm 2 m/s 756 mmHg 42%
14:00 +37°C° 0 mm 2 m/s 755 mmHg 40%
15:00 +36°C° 0 mm 2 m/s 755 mmHg 46%
16:00 +33°C° 0 mm 1 m/s 755 mmHg 51%
17:00 +32°C° 0 mm 1 m/s 755 mmHg 57%
18:00 +30°C° 0.1 mm 1 m/s 756 mmHg 62%
19:00 +29°C° 0.1 mm 1 m/s 756 mmHg 67%
20:00 +27°C° 0.1 mm 1 m/s 757 mmHg 72%
21:00 +27°C° 0 mm 1 m/s 757 mmHg 75%
22:00 +27°C° 0 mm 1 m/s 757 mmHg 77%
23:00 +26°C° 0 mm 1 m/s 757 mmHg 80%

27 Junho, Domingo

Tempo Temperatura Precipitação Vento Pressão Humidade
00:00 +26°C° 0 mm 1 m/s 757 mmHg 83%
01:00 +25°C° 0 mm 1 m/s 757 mmHg 85%
02:00 +25°C° 0 mm 1 m/s 757 mmHg 88%
03:00 +25°C° 0 mm 1 m/s 757 mmHg 89%
04:00 +24°C° 0 mm 1 m/s 757 mmHg 91%
05:00 +24°C° 0 mm 1 m/s 758 mmHg 93%
06:00 +26°C° 0 mm 1 m/s 758 mmHg 86%
07:00 +27°C° 0 mm 1 m/s 759 mmHg 79%
08:00 +29°C° 0 mm 2 m/s 759 mmHg 73%
09:00 +31°C° 0 mm 2 m/s 759 mmHg 64%
10:00 +34°C° 0 mm 2 m/s 759 mmHg 55%
11:00 +36°C° 0 mm 2 m/s 759 mmHg 46%
12:00 +36°C° 0 mm 2 m/s 758 mmHg 44%
13:00 +36°C° 0 mm 2 m/s 757 mmHg 42%
14:00 +37°C° 0 mm 2 m/s 756 mmHg 40%
15:00 +36°C° 0 mm 2 m/s 756 mmHg 44%
16:00 +34°C° 0 mm 2 m/s 756 mmHg 49%
17:00 +32°C° 0 mm 2 m/s 756 mmHg 54%
18:00 +31°C° 0 mm 2 m/s 756 mmHg 58%
19:00 +29°C° 0 mm 1 m/s 757 mmHg 62%
20:00 +28°C° 0 mm 1 m/s 757 mmHg 65%
21:00 +27°C° 0.1 mm 1 m/s 758 mmHg 73%
22:00 +26°C° 0.1 mm 1 m/s 758 mmHg 80%
23:00 +25°C° 0.1 mm 1 m/s 758 mmHg 87%

28 Junho, Segunda-feira

Tempo Temperatura Precipitação Vento Pressão Humidade
00:00 +23°C° 0 mm 0 m/s 758 mmHg 89%
01:00 +22°C° 0 mm 0 m/s 758 mmHg 90%
02:00 +22°C° 0 mm 0 m/s 758 mmHg 92%
03:00 +22°C° 0.2 mm 0 m/s 758 mmHg 93%
04:00 +21°C° 0.2 mm 0 m/s 758 mmHg 95%
05:00 +23°C° 0.2 mm 1 m/s 759 mmHg 96%
06:00 +25°C° 0 mm 1 m/s 759 mmHg 91%
07:00 +26°C° 0 mm 1 m/s 760 mmHg 87%
08:00 +28°C° 0 mm 1 m/s 760 mmHg 82%
09:00 +29°C° 0 mm 1 m/s 760 mmHg 73%
10:00 +31°C° 0 mm 2 m/s 760 mmHg 64%
11:00 +34°C° 0 mm 2 m/s 760 mmHg 54%
12:00 +32°C° 0 mm 2 m/s 759 mmHg 58%
13:00 +32°C° 0 mm 2 m/s 759 mmHg 61%
14:00 +31°C° 0 mm 2 m/s 758 mmHg 65%
15:00 +31°C° 0 mm 1 m/s 758 mmHg 66%
16:00 +31°C° 0 mm 1 m/s 758 mmHg 67%
17:00 +29°C° 0 mm 0 m/s 757 mmHg 68%
18:00 +29°C° 0.1 mm 1 m/s 758 mmHg 73%
19:00 +28°C° 0.1 mm 1 m/s 758 mmHg 79%
20:00 +26°C° 0.1 mm 1 m/s 759 mmHg 84%
21:00 +26°C° 0.1 mm 1 m/s 759 mmHg 88%
22:00 +25°C° 0.1 mm 1 m/s 759 mmHg 91%
23:00 +25°C° 0.1 mm 1 m/s 760 mmHg 94%

29 Junho, Terça-feira

Tempo Temperatura Precipitação Vento Pressão Humidade
00:00 +25°C° 0 mm 1 m/s 759 mmHg 94%
01:00 +25°C° 0 mm 1 m/s 759 mmHg 94%
02:00 +25°C° 0 mm 1 m/s 759 mmHg 93%
03:00 +25°C° 0 mm 1 m/s 759 mmHg 93%
04:00 +25°C° 0 mm 1 m/s 759 mmHg 93%
05:00 +25°C° 0 mm 1 m/s 759 mmHg 93%
06:00 +26°C° 0 mm 1 m/s 759 mmHg 87%
07:00 +27°C° 0 mm 1 m/s 760 mmHg 81%
08:00 +28°C° 0 mm 1 m/s 760 mmHg 75%
09:00 +31°C° 0 mm 1 m/s 760 mmHg 65%
10:00 +33°C° 0 mm 1 m/s 760 mmHg 55%
11:00 +35°C° 0 mm 1 m/s 760 mmHg 45%
12:00 +34°C° 0.1 mm 1 m/s 759 mmHg 47%
13:00 +34°C° 0.1 mm 1 m/s 758 mmHg 49%
14:00 +33°C° 0.1 mm 1 m/s 757 mmHg 51%
15:00 +33°C° 0 mm 1 m/s 757 mmHg 54%
16:00 +32°C° 0 mm 1 m/s 757 mmHg 58%
17:00 +31°C° 0 mm 1 m/s 757 mmHg 61%
18:00 +29°C° 0.1 mm 1 m/s 758 mmHg 68%
19:00 +28°C° 0.1 mm 1 m/s 758 mmHg 75%
20:00 +26°C° 0.1 mm 1 m/s 759 mmHg 82%
21:00 +26°C° 0.1 mm 1 m/s 759 mmHg 84%
22:00 +23°C° 0.1 mm 0 m/s 759 mmHg 87%
23:00 +23°C° 0.1 mm 0 m/s 760 mmHg 89%
Mostrar mais

Necessitamos do seu Consentimento

A Meteoprog e os seus Fornecedores de Serviços podem armazenar e aceder a dados pessoais como cookies, identificadores do dispositivo ou outras tecnologias semelhantes existentes no seu dispositivo e processar estes dados para personalizar conteúdos e anúncios, assim como funcionalidades nas redes sociais e análise de tráfego.

  • Armazenar e/ou aceder a informações no seu dispositivo

    Os cookies, identificadores do dispositivo ou outras informações podem ser armazenados ou acedidos no seu dispositivo, para os fins acima indicados.

  • Anúncios e conteúdos personalizados, medição de anúncios e conteúdos, dados sobre o público-alvo e desenvolvimento de produtos

    Os anúncios e os conteúdos podem ser personalizados com base num perfil. Podem ser adicionados dados adicionais para uma maior personalização dos anúncios e dos conteúdos. A eficácia dos anúncios e dos conteúdos pode ser medida. Podem ser obtidas informações sobre o público que visualizou os anúncios e os conteúdos. Estes dados podem ser usados para desenvolver ou melhorar sistemas, softwares ou a experiência do utilizador.

Ao clicar em "Eu concordo”, permitirá o uso de cookies, identificadores do dispositivo e web beacons mencionados ou outras tecnologias semelhantes. As configurações do navegador do seu dispositivo podem ser alteradas.

Para certos fins, podem ser invocados interesses legítimos ao invés de consentimento. Pode ler mais informação sobre este assunto na nossa Política de Privacidade e Cookies.